| time (UTC) | temp F | wind direction | speed MPH | gust MPH | rain 1hr in | rain 24hr in | rain mn in | humidity % | barometer mb |
| 20260507223204 | 74 | 216 | 3.0 | 7.0 | 0.00 | 0.00 | 0.00 | 60 | 1017.0 |
| 20260507222704 | 74 | 167 | 4.0 | 8.0 | 0.00 | 0.00 | 0.00 | 60 | 1017.2 |
| 20260507222205 | 74 | 188 | 3.0 | 8.0 | 0.00 | 0.00 | 0.00 | 59 | 1017.2 |
| 20260507221204 | 74 | 130 | 3.0 | 7.0 | 0.00 | 0.00 | 0.00 | 59 | 1017.2 |
| 20260507220204 | 74 | 205 | 3.0 | 6.0 | 0.00 | 0.00 | 0.00 | 60 | 1017.3 |
| 20260507215704 | 74 | 193 | 3.0 | 6.0 | 0.00 | 0.00 | 0.00 | 61 | 1017.3 |
| 20260507213204 | 72 | 125 | 3.0 | 9.0 | 0.00 | 0.00 | 0.00 | 65 | 1017.5 |
| 20260507212704 | 71 | 105 | 4.0 | 9.0 | 0.00 | 0.00 | 0.00 | 67 | 1017.5 |
| 20260507211705 | 71 | 113 | 4.0 | 9.0 | 0.00 | 0.00 | 0.00 | 67 | 1017.7 |
| 20260507211205 | 70 | 75 | 4.0 | 9.0 | 0.00 | 0.00 | 0.00 | 69 | 1017.7 |
| 20260507210704 | 70 | 117 | 4.0 | 8.0 | 0.00 | 0.00 | 0.00 | 70 | 1017.8 |
| 20260507210204 | 69 | 130 | 4.0 | 8.0 | 0.00 | 0.00 | 0.00 | 70 | 1017.8 |
| 20260507205204 | 68 | 132 | 4.0 | 8.0 | 0.00 | 0.00 | 0.00 | 71 | 1017.8 |
| 20260507204704 | 68 | 145 | 4.0 | 9.0 | 0.00 | 0.00 | 0.00 | 72 | 1018.0 |
| 20260507204204 | 68 | 134 | 5.0 | 9.0 | 0.00 | 0.00 | 0.00 | 72 | 1018.0 |
| 20260507203705 | 68 | 117 | 5.0 | 9.0 | 0.00 | 0.00 | 0.00 | 72 | 1017.9 |
| 20260507203205 | 68 | 114 | 5.0 | 9.0 | 0.00 | 0.00 | 0.00 | 71 | 1018.0 |
| 20260507202704 | 68 | 140 | 5.0 | 9.0 | 0.00 | 0.00 | 0.00 | 72 | 1018.2 |
| 20260507200205 | 67 | 138 | 3.0 | 8.0 | 0.00 | 0.00 | 0.00 | 73 | 1018.4 |
| 20260507195704 | 67 | 31 | 3.0 | 8.0 | 0.00 | 0.00 | 0.00 | 72 | 1018.3 |
| 20260507195204 | 67 | 121 | 3.0 | 8.0 | 0.00 | 0.00 | 0.00 | 73 | 1018.4 |
| 20260507194704 | 67 | 128 | 2.0 | 8.0 | 0.00 | 0.00 | 0.00 | 74 | 1018.4 |
| 20260507194204 | 67 | 148 | 2.0 | 6.0 | 0.00 | 0.00 | 0.00 | 75 | 1018.6 |
| 20260507193205 | 65 | 19 | 2.0 | 6.0 | 0.00 | 0.00 | 0.00 | 80 | 1018.7 |
| 20260507192704 | 63 | 240 | 3.0 | 7.0 | 0.00 | 0.00 | 0.00 | 81 | 1018.8 |
| 20260507191205 | 61 | 173 | 4.0 | 8.0 | 0.00 | 0.00 | 0.00 | 83 | 1019.1 |
| 20260507190704 | 60 | 217 | 4.0 | 8.0 | 0.00 | 0.00 | 0.00 | 84 | 1019.1 |
| 20260507190205 | 60 | 186 | 5.0 | 8.0 | 0.00 | 0.00 | 0.00 | 85 | 1019.1 |
| 20260507185705 | 60 | 194 | 5.0 | 8.0 | 0.00 | 0.00 | 0.00 | 85 | 1019.2 |
| 20260507185204 | 60 | 188 | 4.0 | 9.0 | 0.00 | 0.00 | 0.00 | 86 | 1019.3 |
| 20260507184704 | 59 | 229 | 5.0 | 9.0 | 0.00 | 0.00 | 0.00 | 86 | 1019.2 |
| 20260507184205 | 59 | 258 | 4.0 | 9.0 | 0.00 | 0.00 | 0.00 | 87 | 1019.3 |
| 20260507183705 | 60 | 207 | 4.0 | 8.0 | 0.00 | 0.00 | 0.00 | 88 | 1019.3 |
| 20260507183204 | 59 | 173 | 4.0 | 8.0 | 0.00 | 0.00 | 0.00 | 88 | 1019.3 |
| 20260507182705 | 59 | 163 | 4.0 | 7.0 | 0.00 | 0.00 | 0.00 | 89 | 1019.5 |
| 20260507182205 | 59 | 207 | 3.0 | 7.0 | 0.00 | 0.00 | 0.00 | 90 | 1019.4 |
| 20260507181205 | 58 | 216 | 4.0 | 8.0 | 0.00 | 0.00 | 0.00 | 90 | 1019.5 |
| 20260507180204 | 58 | 218 | 5.0 | 8.0 | 0.00 | 0.00 | 0.00 | 91 | 1019.5 |
| 20260507175704 | 58 | 244 | 5.0 | 8.0 | 0.00 | 0.00 | 0.00 | 91 | 1019.6 |
| 20260507175206 | 58 | 270 | 4.0 | 8.0 | 0.00 | 0.00 | 0.00 | 92 | 1019.6 |
| 20260507174705 | 58 | 207 | 4.0 | 8.0 | 0.00 | 0.00 | 0.00 | 92 | 1019.6 |
| 20260507174205 | 58 | 222 | 4.0 | 7.0 | 0.00 | 0.00 | 0.00 | 92 | 1019.5 |
| 20260507173204 | 58 | 211 | 3.0 | 7.0 | 0.00 | 0.00 | 0.00 | 93 | 1019.5 |
| 20260507172704 | 57 | 178 | 3.0 | 7.0 | 0.00 | 0.00 | 0.00 | 94 | 1019.5 |
| 20260507172205 | 57 | 188 | 4.0 | 7.0 | 0.00 | 0.00 | 0.00 | 94 | 1019.4 |
| 20260507171704 | 57 | 194 | 3.0 | 5.0 | 0.00 | 0.00 | 0.00 | 94 | 1019.5 |
| 20260507171205 | 57 | 236 | 2.0 | 5.0 | 0.00 | 0.00 | 0.00 | 94 | 1019.5 |
| 20260507170705 | 57 | 272 | 2.0 | 5.0 | 0.00 | 0.00 | 0.00 | 94 | 1019.4 |
| 20260507170205 | 57 | 202 | 0.0 | 4.0 | 0.00 | 0.00 | 0.00 | 94 | 1019.4 |
| 20260507165205 | 56 | 238 | 2.0 | 4.0 | 0.00 | 0.00 | 0.00 | 94 | 1019.4 |
| 20260507164205 | 56 | 180 | 1.0 | 4.0 | 0.00 | 0.00 | 0.00 | 94 | 1019.5 |
| 20260507163705 | 56 | 294 | 1.0 | 4.0 | 0.00 | 0.00 | 0.00 | 94 | 1019.6 |
| 20260507163204 | 56 | 214 | 1.0 | 3.0 | 0.00 | 0.00 | 0.00 | 94 | 1019.5 |
| 20260507162704 | 56 | 309 | 1.0 | 3.0 | 0.00 | 0.00 | 0.00 | 94 | 1019.5 |
| 20260507162205 | 56 | 311 | 0.0 | 3.0 | 0.00 | 0.00 | 0.00 | 94 | 1019.6 |
| 20260507161704 | 56 | 231 | 0.0 | 1.0 | 0.00 | 0.00 | 0.00 | 94 | 1019.6 |
| 20260507161204 | 56 | 46 | 0.0 | 2.0 | 0.00 | 0.00 | 0.00 | 94 | 1019.6 |
| 20260507160705 | 56 | 303 | 0.0 | 2.0 | 0.00 | 0.00 | 0.00 | 94 | 1019.6 |
| 20260507155203 | 55 | 293 | 0.0 | 2.0 | 0.00 | 0.00 | 0.00 | 94 | 1019.5 |
| 20260507154704 | 55 | 293 | 0.0 | 3.0 | 0.00 | 0.00 | 0.00 | 94 | 1019.6 |
| 20260507154205 | 55 | 276 | 1.0 | 3.0 | 0.00 | 0.00 | 0.00 | 94 | 1019.6 |
| 20260507153705 | 55 | 238 | 1.0 | 3.0 | 0.00 | 0.00 | 0.00 | 94 | 1019.6 |
| 20260507153204 | 55 | 238 | 0.0 | 5.0 | 0.00 | 0.00 | 0.00 | 94 | 1019.6 |
| 20260507152704 | 55 | 128 | 1.0 | 5.0 | 0.00 | 0.00 | 0.00 | 94 | 1019.6 |
| 20260507152204 | 55 | 136 | 2.0 | 5.0 | 0.00 | 0.00 | 0.00 | 93 | 1019.5 |
| 20260507151205 | 55 | 114 | 0.0 | 2.0 | 0.00 | 0.00 | 0.00 | 93 | 1019.7 |
| 20260507150704 | 55 | 139 | 0.0 | 2.0 | 0.00 | 0.00 | 0.00 | 93 | 1019.7 |
| 20260507150204 | 55 | 139 | 0.0 | 0.0 | 0.00 | 0.00 | 0.00 | 93 | 1019.6 |
| 20260507145205 | 55 | 96 | 0.0 | 0.0 | 0.00 | 0.00 | 0.00 | 93 | 1019.6 |
| 20260507144205 | 55 | 136 | 0.0 | 0.0 | 0.00 | 0.00 | 0.00 | 93 | 1019.5 |
| 20260507143704 | 55 | 136 | 0.0 | 2.0 | 0.00 | 0.00 | 0.00 | 93 | 1019.5 |
| 20260507143205 | 55 | 136 | 0.0 | 2.0 | 0.00 | 0.00 | 0.00 | 93 | 1019.6 |
| 20260507142204 | 55 | 202 | 0.0 | 3.0 | 0.00 | 0.00 | 0.00 | 93 | 1019.6 |
| 20260507141704 | 55 | 201 | 1.0 | 3.0 | 0.00 | 0.00 | 0.00 | 93 | 1019.4 |
| 20260507141205 | 55 | 201 | 1.0 | 3.0 | 0.00 | 0.00 | 0.00 | 93 | 1019.5 |
| 20260507140704 | 55 | 201 | 1.0 | 3.0 | 0.00 | 0.00 | 0.00 | 93 | 1019.6 |
| 20260507140204 | 55 | 110 | 1.0 | 3.0 | 0.00 | 0.00 | 0.00 | 93 | 1019.4 |
| 20260507135704 | 55 | 110 | 0.0 | 3.0 | 0.00 | 0.00 | 0.00 | 93 | 1019.4 |
| 20260507135204 | 55 | 109 | 1.0 | 3.0 | 0.00 | 0.00 | 0.00 | 93 | 1019.4 |
| 20260507134704 | 55 | 109 | 1.0 | 4.0 | 0.00 | 0.00 | 0.00 | 93 | 1019.3 |
| 20260507134205 | 55 | 111 | 1.0 | 4.0 | 0.00 | 0.00 | 0.00 | 93 | 1019.3 |
| 20260507133704 | 55 | 142 | 1.0 | 4.0 | 0.00 | 0.00 | 0.00 | 92 | 1019.3 |
| 20260507133204 | 55 | 134 | 2.0 | 5.0 | 0.00 | 0.00 | 0.00 | 92 | 1019.3 |
| 20260507132704 | 55 | 190 | 2.0 | 5.0 | 0.00 | 0.00 | 0.00 | 92 | 1019.1 |
| 20260507132204 | 55 | 190 | 2.0 | 4.0 | 0.00 | 0.00 | 0.00 | 92 | 1019.1 |
| 20260507131705 | 55 | 182 | 1.0 | 4.0 | 0.00 | 0.00 | 0.00 | 92 | 1019.1 |
| 20260507131205 | 55 | 175 | 1.0 | 3.0 | 0.00 | 0.00 | 0.00 | 92 | 1019.0 |
| 20260507130704 | 55 | 175 | 1.0 | 2.0 | 0.00 | 0.00 | 0.00 | 92 | 1019.0 |
| 20260507130205 | 55 | 159 | 0.0 | 0.0 | 0.00 | 0.00 | 0.00 | 92 | 1019.0 |
| 20260507125704 | 54 | 149 | 0.0 | 0.0 | 0.00 | 0.00 | 0.00 | 92 | 1019.0 |
| 20260507125205 | 54 | 53 | 0.0 | 0.0 | 0.00 | 0.00 | 0.00 | 92 | 1019.0 |
| 20260507124705 | 54 | 53 | 0.0 | 1.0 | 0.00 | 0.00 | 0.00 | 92 | 1018.9 |
| 20260507124204 | 54 | 53 | 0.0 | 1.0 | 0.00 | 0.00 | 0.00 | 92 | 1018.9 |
| 20260507123704 | 54 | 14 | 0.0 | 0.0 | 0.00 | 0.00 | 0.00 | 92 | 1019.0 |
| 20260507123204 | 54 | 24 | 0.0 | 0.0 | 0.00 | 0.00 | 0.00 | 92 | 1019.0 |
| 20260507122706 | 54 | 46 | 0.0 | 0.0 | 0.00 | 0.00 | 0.00 | 92 | 1019.0 |
| 20260507122205 | 54 | 294 | 0.0 | 0.0 | 0.00 | 0.00 | 0.00 | 92 | 1019.0 |
| 20260507121705 | 54 | 294 | 0.0 | 0.0 | 0.00 | 0.00 | 0.00 | 92 | 1019.0 |
| 20260507121205 | 53 | 294 | 0.0 | 0.0 | 0.00 | 0.00 | 0.00 | 92 | 1018.9 |
| 20260507120704 | 53 | 294 | 0.0 | 0.0 | 0.00 | 0.00 | 0.00 | 92 | 1019.1 |
| 20260507120204 | 53 | 323 | 0.0 | 0.0 | 0.00 | 0.00 | 0.00 | 92 | 1019.0 |
| 20260507115705 | 53 | 323 | 0.0 | 0.0 | 0.00 | 0.00 | 0.00 | 91 | 1019.1 |
| 20260507114705 | 53 | 323 | 0.0 | 0.0 | 0.00 | 0.00 | 0.00 | 92 | 1019.1 |
| 20260507112704 | 54 | 323 | 0.0 | 0.0 | 0.00 | 0.00 | 0.00 | 92 | 1019.1 |
| 20260507112205 | 54 | 323 | 0.0 | 0.0 | 0.00 | 0.00 | 0.00 | 91 | 1019.0 |
| 20260507111705 | 54 | 323 | 0.0 | 2.0 | 0.00 | 0.00 | 0.00 | 91 | 1019.1 |
| 20260507111204 | 54 | 323 | 0.0 | 2.0 | 0.00 | 0.00 | 0.00 | 91 | 1019.1 |
| 20260507110704 | 54 | 323 | 0.0 | 3.0 | 0.00 | 0.00 | 0.00 | 92 | 1019.1 |
| 20260507110206 | 54 | 306 | 1.0 | 3.0 | 0.00 | 0.00 | 0.00 | 92 | 1019.1 |
| 20260507105705 | 55 | 298 | 1.0 | 3.0 | 0.00 | 0.00 | 0.00 | 91 | 1019.1 |
| 20260507105204 | 55 | 288 | 1.0 | 3.0 | 0.00 | 0.00 | 0.00 | 92 | 1019.1 |
| 20260507104706 | 55 | 284 | 1.0 | 3.0 | 0.00 | 0.00 | 0.00 | 92 | 1019.1 |
| 20260507104205 | 55 | 233 | 0.0 | 2.0 | 0.00 | 0.00 | 0.00 | 92 | 1019.1 |
| 20260507103705 | 55 | 233 | 0.0 | 2.0 | 0.00 | 0.00 | 0.00 | 92 | 1019.1 |
| 20260507103204 | 55 | 233 | 0.0 | 2.0 | 0.00 | 0.00 | 0.00 | 92 | 1019.2 |
| 20260507102704 | 55 | 233 | 1.0 | 3.0 | 0.00 | 0.00 | 0.00 | 92 | 1019.2 |
| 20260507102204 | 55 | 233 | 1.0 | 4.0 | 0.00 | 0.00 | 0.00 | 92 | 1019.2 |
| 20260507101705 | 55 | 233 | 1.0 | 4.0 | 0.00 | 0.00 | 0.00 | 92 | 1019.1 |
| 20260507101204 | 55 | 233 | 1.0 | 4.0 | 0.00 | 0.00 | 0.00 | 92 | 1019.1 |
| 20260507100704 | 55 | 238 | 1.0 | 3.0 | 0.00 | 0.00 | 0.00 | 91 | 1019.0 |
| 20260507100204 | 55 | 260 | 1.0 | 3.0 | 0.00 | 0.00 | 0.00 | 91 | 1019.1 |
| 20260507095705 | 55 | 260 | 1.0 | 4.0 | 0.00 | 0.00 | 0.00 | 91 | 1019.2 |
| 20260507095204 | 55 | 260 | 1.0 | 4.0 | 0.00 | 0.00 | 0.00 | 91 | 1019.1 |
| 20260507094704 | 55 | 288 | 1.0 | 4.0 | 0.00 | 0.00 | 0.00 | 91 | 1019.3 |
| 20260507093705 | 55 | 275 | 1.0 | 4.0 | 0.00 | 0.00 | 0.00 | 91 | 1019.2 |
| 20260507093204 | 55 | 275 | 1.0 | 3.0 | 0.00 | 0.00 | 0.00 | 91 | 1019.3 |
| 20260507092205 | 55 | 252 | 1.0 | 2.0 | 0.00 | 0.00 | 0.00 | 91 | 1019.3 |
| 20260507091204 | 55 | 263 | 0.0 | 0.0 | 0.00 | 0.00 | 0.00 | 91 | 1019.4 |
| 20260507090705 | 55 | 180 | 0.0 | 0.0 | 0.00 | 0.00 | 0.00 | 91 | 1019.4 |
| 20260507085704 | 55 | 121 | 0.0 | 0.0 | 0.00 | 0.00 | 0.00 | 91 | 1019.5 |
| 20260507085204 | 55 | 121 | 0.0 | 0.0 | 0.00 | 0.00 | 0.00 | 91 | 1019.5 |
| 20260507084704 | 55 | 121 | 0.0 | 0.0 | 0.00 | 0.00 | 0.00 | 91 | 1019.5 |
| 20260507084204 | 55 | 121 | 0.0 | 0.0 | 0.00 | 0.00 | 0.00 | 91 | 1019.4 |
| 20260507083705 | 55 | 121 | 0.0 | 0.0 | 0.00 | 0.00 | 0.00 | 91 | 1019.5 |
| 20260507083205 | 55 | 121 | 0.0 | 0.0 | 0.00 | 0.00 | 0.00 | 90 | 1019.6 |
| 20260507082204 | 56 | 122 | 0.0 | 0.0 | 0.00 | 0.00 | 0.00 | 90 | 1019.6 |
| 20260507081704 | 56 | 121 | 0.0 | 0.0 | 0.00 | 0.00 | 0.00 | 90 | 1019.6 |
| 20260507081204 | 56 | 121 | 0.0 | 0.0 | 0.00 | 0.00 | 0.00 | 90 | 1019.6 |
| 20260507080705 | 56 | 121 | 0.0 | 0.0 | 0.00 | 0.00 | 0.00 | 90 | 1019.6 |
| 20260507075704 | 56 | 121 | 0.0 | 0.0 | 0.00 | 0.00 | 0.00 | 90 | 1019.8 |
| 20260507075204 | 56 | 121 | 0.0 | 1.0 | 0.00 | 0.00 | 0.00 | 90 | 1019.9 |
| 20260507074704 | 56 | 121 | 0.0 | 1.0 | 0.00 | 0.00 | 0.00 | 90 | 1019.9 |
| 20260507074204 | 56 | 121 | 0.0 | 2.0 | 0.00 | 0.00 | 0.00 | 90 | 1019.9 |
| 20260507073204 | 56 | 121 | 0.0 | 2.0 | 0.00 | 0.00 | 0.00 | 90 | 1020.0 |
| 20260507072204 | 56 | 121 | 0.0 | 3.0 | 0.00 | 0.00 | 0.00 | 90 | 1019.9 |
| 20260507071704 | 56 | 77 | 1.0 | 3.0 | 0.00 | 0.00 | 0.00 | 90 | 1019.9 |
| 20260507071205 | 56 | 77 | 1.0 | 5.0 | 0.00 | 0.00 | 0.00 | 90 | 1019.9 |
| 20260507070704 | 56 | 121 | 1.0 | 5.0 | 0.00 | 0.00 | 0.00 | 90 | 1019.9 |
| 20260507065704 | 56 | 119 | 1.0 | 5.0 | 0.00 | 0.00 | 0.00 | 90 | 1019.9 |
| 20260507065205 | 56 | 117 | 1.0 | 7.0 | 0.00 | 0.00 | 0.00 | 90 | 1019.9 |
| 20260507064705 | 56 | 129 | 2.0 | 7.0 | 0.00 | 0.00 | 0.00 | 90 | 1019.9 |
| 20260507064206 | 56 | 124 | 3.0 | 9.0 | 0.00 | 0.00 | 0.00 | 90 | 1019.7 |
| 20260507063705 | 56 | 135 | 3.0 | 9.0 | 0.00 | 0.00 | 0.00 | 90 | 1019.8 |
| 20260507063205 | 56 | 116 | 3.0 | 9.0 | 0.00 | 0.00 | 0.00 | 90 | 1019.8 |
| 20260507062706 | 56 | 128 | 3.0 | 7.0 | 0.00 | 0.00 | 0.00 | 90 | 1019.9 |
| 20260507062205 | 57 | 69 | 3.0 | 9.0 | 0.00 | 0.00 | 0.00 | 89 | 1019.9 |
| 20260507061205 | 57 | 127 | 4.0 | 8.0 | 0.00 | 0.00 | 0.00 | 89 | 1019.8 |
| 20260507060704 | 57 | 133 | 4.0 | 8.0 | 0.00 | 0.00 | 0.00 | 89 | 1019.8 |
| 20260507060204 | 57 | 142 | 4.0 | 8.0 | 0.00 | 0.00 | 0.00 | 89 | 1019.8 |
| 20260507055704 | 57 | 138 | 5.0 | 9.0 | 0.00 | 0.00 | 0.00 | 89 | 1019.8 |
| 20260507054204 | 57 | 109 | 5.0 | 11.0 | 0.00 | 0.00 | 0.00 | 89 | 1019.9 |
| 20260507053705 | 57 | 143 | 5.0 | 11.0 | 0.00 | 0.00 | 0.00 | 88 | 1019.9 |
| 20260507053204 | 57 | 123 | 4.0 | 10.0 | 0.00 | 0.00 | 0.00 | 88 | 1019.9 |
| 20260507052704 | 57 | 128 | 4.0 | 10.0 | 0.00 | 0.00 | 0.00 | 88 | 1019.8 |
| 20260507052205 | 57 | 119 | 5.0 | 10.0 | 0.00 | 0.00 | 0.00 | 88 | 1020.0 |
| 20260507051705 | 57 | 135 | 4.0 | 9.0 | 0.00 | 0.00 | 0.00 | 88 | 1019.9 |
| 20260507051205 | 58 | 101 | 4.0 | 10.0 | 0.00 | 0.00 | 0.00 | 88 | 1019.9 |
| 20260507050704 | 58 | 111 | 5.0 | 10.0 | 0.00 | 0.00 | 0.00 | 87 | 1019.8 |
| 20260507050204 | 58 | 101 | 4.0 | 12.0 | 0.00 | 0.00 | 0.00 | 87 | 1019.9 |
| 20260507044704 | 58 | 129 | 5.0 | 12.0 | 0.00 | 0.00 | 0.00 | 86 | 1019.8 |
| 20260507043705 | 59 | 102 | 5.0 | 12.0 | 0.00 | 0.00 | 0.00 | 86 | 1019.6 |
| 20260507043206 | 59 | 122 | 6.0 | 11.0 | 0.00 | 0.00 | 0.00 | 85 | 1019.5 |
| 20260507042704 | 59 | 111 | 6.0 | 11.0 | 0.00 | 0.00 | 0.00 | 85 | 1019.4 |
| 20260507042205 | 59 | 121 | 5.0 | 11.0 | 0.00 | 0.00 | 0.00 | 85 | 1019.3 |
| 20260507041704 | 60 | 123 | 5.0 | 11.0 | 0.00 | 0.00 | 0.00 | 84 | 1019.1 |
| 20260507041204 | 60 | 122 | 5.0 | 10.0 | 0.00 | 0.00 | 0.00 | 84 | 1019.0 |
| 20260507040705 | 60 | 89 | 4.0 | 10.0 | 0.00 | 0.00 | 0.00 | 84 | 1019.0 |
| 20260507035204 | 61 | 103 | 4.0 | 13.0 | 0.00 | 0.00 | 0.00 | 83 | 1018.9 |
| 20260507034705 | 61 | 92 | 5.0 | 13.0 | 0.00 | 0.00 | 0.00 | 83 | 1018.8 |
| 20260507034204 | 61 | 95 | 5.0 | 9.0 | 0.00 | 0.00 | 0.00 | 82 | 1018.9 |
| 20260507033704 | 62 | 125 | 3.0 | 8.0 | 0.00 | 0.00 | 0.00 | 82 | 1018.7 |
| 20260507033204 | 62 | 107 | 3.0 | 9.0 | 0.00 | 0.00 | 0.00 | 83 | 1018.7 |
| 20260507032704 | 62 | 136 | 3.0 | 9.0 | 0.00 | 0.00 | 0.00 | 82 | 1018.6 |
| 20260507031704 | 62 | 101 | 3.0 | 11.0 | 0.00 | 0.00 | 0.00 | 81 | 1018.4 |
| 20260507031205 | 62 | 94 | 4.0 | 11.0 | 0.00 | 0.00 | 0.00 | 80 | 1018.3 |
| 20260507030704 | 63 | 108 | 5.0 | 11.0 | 0.00 | 0.00 | 0.00 | 79 | 1018.2 |
| 20260507030204 | 63 | 104 | 4.0 | 8.0 | 0.00 | 0.00 | 0.00 | 78 | 1018.2 |
| 20260507025704 | 63 | 128 | 3.0 | 8.0 | 0.00 | 0.00 | 0.00 | 78 | 1018.1 |
| 20260507025205 | 64 | 109 | 3.0 | 8.0 | 0.00 | 0.00 | 0.00 | 77 | 1018.0 |
| 20260507024704 | 64 | 142 | 4.0 | 8.0 | 0.00 | 0.00 | 0.00 | 77 | 1017.9 |
| 20260507023704 | 65 | 47 | 3.0 | 8.0 | 0.00 | 0.00 | 0.00 | 75 | 1017.8 |
| 20260507023204 | 66 | 111 | 3.0 | 8.0 | 0.00 | 0.00 | 0.00 | 75 | 1017.8 |
| 20260507022704 | 66 | 121 | 3.0 | 8.0 | 0.00 | 0.00 | 0.00 | 75 | 1017.8 |
| 20260507022204 | 66 | 117 | 3.0 | 8.0 | 0.00 | 0.00 | 0.00 | 74 | 1017.8 |
| 20260507021705 | 67 | 86 | 3.0 | 8.0 | 0.00 | 0.00 | 0.00 | 73 | 1017.8 |
| 20260507020205 | 68 | 88 | 3.0 | 10.0 | 0.00 | 0.00 | 0.00 | 71 | 1017.8 |
| 20260507015705 | 68 | 91 | 3.0 | 10.0 | 0.00 | 0.00 | 0.00 | 71 | 1017.8 |
| 20260507015204 | 69 | 71 | 3.0 | 9.0 | 0.00 | 0.00 | 0.00 | 69 | 1017.7 |
| 20260507014704 | 70 | 98 | 4.0 | 9.0 | 0.00 | 0.00 | 0.00 | 68 | 1017.7 |
| 20260507014206 | 71 | 85 | 4.0 | 9.0 | 0.00 | 0.00 | 0.00 | 65 | 1017.8 |
| 20260507013704 | 73 | 83 | 3.0 | 6.0 | 0.00 | 0.00 | 0.00 | 63 | 1017.8 |
| 20260507013204 | 74 | 123 | 2.0 | 4.0 | 0.00 | 0.00 | 0.00 | 61 | 1017.7 |
| 20260507012704 | 75 | 158 | 2.0 | 5.0 | 0.00 | 0.00 | 0.00 | 60 | 1017.8 |
| 20260507012204 | 75 | 200 | 3.0 | 5.0 | 0.00 | 0.00 | 0.00 | 59 | 1017.8 |
| 20260507011704 | 75 | 203 | 3.0 | 5.0 | 0.00 | 0.00 | 0.00 | 59 | 1017.7 |
| 20260507011204 | 75 | 171 | 3.0 | 5.0 | 0.00 | 0.00 | 0.00 | 58 | 1017.6 |
| 20260507010704 | 75 | 211 | 3.0 | 6.0 | 0.00 | 0.00 | 0.00 | 58 | 1017.7 |
| 20260507010205 | 75 | 154 | 3.0 | 7.0 | 0.00 | 0.00 | 0.00 | 59 | 1017.7 |
| 20260507005704 | 75 | 190 | 3.0 | 7.0 | 0.00 | 0.00 | 0.00 | 58 | 1017.8 |
| 20260507005204 | 75 | 218 | 3.0 | 7.0 | 0.00 | 0.00 | 0.00 | 60 | 1017.6 |
| 20260507004704 | 75 | 193 | 3.0 | 7.0 | 0.00 | 0.00 | 0.00 | 59 | 1017.7 |
| 20260507004205 | 75 | 208 | 3.0 | 7.0 | 0.00 | 0.00 | 0.00 | 60 | 1017.6 |
| 20260507003706 | 75 | 126 | 3.0 | 7.0 | 0.00 | 0.00 | 0.00 | 60 | 1017.6 |
| 20260507003204 | 74 | 198 | 3.0 | 7.0 | 0.00 | 0.00 | 0.00 | 61 | 1017.6 |
| 20260507002704 | 74 | 190 | 3.0 | 7.0 | 0.00 | 0.00 | 0.00 | 62 | 1017.7 |
| 20260507001704 | 74 | 180 | 4.0 | 8.0 | 0.00 | 0.00 | 0.00 | 61 | 1017.7 |
| 20260507001204 | 75 | 148 | 4.0 | 9.0 | 0.00 | 0.00 | 0.00 | 60 | 1017.6 |
| 20260507000705 | 75 | 196 | 5.0 | 9.0 | 0.00 | 0.00 | 0.00 | 58 | 1017.6 |
| 20260507000212 | 75 | 193 | 5.0 | 9.0 | 0.00 | 0.00 | 0.00 | 59 | 1017.7 |
| 20260506235205 | 75 | 168 | 5.0 | 9.0 | 0.00 | 0.00 | 0.00 | 60 | 1017.7 |
| 20260506234705 | 75 | 212 | 5.0 | 9.0 | 0.00 | 0.00 | 0.00 | 58 | 1017.7 |
| 20260506233704 | 76 | 215 | 3.0 | 9.0 | 0.00 | 0.00 | 0.00 | 58 | 1017.6 |
| 20260506233205 | 76 | 232 | 3.0 | 9.0 | 0.00 | 0.00 | 0.00 | 57 | 1017.7 |
| 20260506232705 | 75 | 194 | 3.0 | 10.0 | 0.00 | 0.00 | 0.00 | 58 | 1017.8 |
| 20260506231704 | 74 | 217 | 5.0 | 10.0 | 0.00 | 0.00 | 0.00 | 57 | 1017.8 |
| 20260506231205 | 74 | 202 | 5.0 | 10.0 | 0.00 | 0.00 | 0.00 | 58 | 1017.9 |
| 20260506230704 | 75 | 183 | 5.0 | 10.0 | 0.00 | 0.00 | 0.00 | 58 | 1018.0 |
| 20260506225705 | 75 | 244 | 5.0 | 12.0 | 0.00 | 0.00 | 0.00 | 56 | 1018.0 |
| 20260506225204 | 75 | 202 | 4.0 | 12.0 | 0.00 | 0.00 | 0.00 | 57 | 1018.1 |
| 20260506224705 | 75 | 232 | 4.0 | 11.0 | 0.00 | 0.00 | 0.00 | 58 | 1018.3 |
| 20260506224205 | 74 | 200 | 6.0 | 11.0 | 0.00 | 0.00 | 0.00 | 58 | 1018.3 |
| 20260506223704 | 74 | 242 | 5.0 | 12.0 | 0.00 | 0.00 | 0.00 | 57 | 1018.3 |